Location: De Har
(53.3413°N, 6.6858°E)
Time: 20:44:42
(UTC+00:00)

Resurs 1-4 Rocket - Pass Details

Date: 22 April 2026
Orbit: 798 x 812 km, 98.8° (Epoch: 21 May)

Event Time Altitude Azimuth Distance (km) Brightness Sun altitude
Rises 01:01:07 0° 26° (NNE) 3,345 6.9 -21.8°
Reaches altitude 10° 01:04:12 10° 44° (NE) 2,406 5.6 -21.6°
Maximum altitude 01:07:52 19° 88° (E) 1,865 4.3 -21.4°
Drops below altitude 10° 01:11:31 10° 132° (SE) 2,388 4.4 -21.1°
Enters shadow 01:12:17 - 138° (SE) 2,598 4.5 -21.1°
